www.pogodaiklimat.ru

Погода и климат >> Архив погоды >> Россия >> Волгоградская область >> Елань


ПОГОДА в Елани

  • Прогноз погоды в Елани
  • Монитор погоды в Елани

АРХИВ ПОГОДЫ в Елани

Время (UTC), дата Ветер
(напр.,м/с)
 
Видим.   Явления Облачность Т
(С)
Тd
(С)
f
(%)
Тe
(С)
Тes
(С)
Комфортность P
(гПа)
Po
(гПа)
Тmin
(С)
Tmax
(С)
R
(мм)
R24
(мм)
S
(см)
21 11.07 Ю 2 20 км 10/0
[Ac lent Ci fib]
+13.7 +10.4 80 +13 +13 1006.4 990.6
00 12.07 З 2 н/о н/о +11.9 +10.6 92 +11 +11 1006.5 990.6
03 12.07 Ю 1 20 км 10/0
[Ac lent Ci fib]
+13.0 +11.2 89 +13 +14 1006.7 990.9 +11.5
06 12.07 штиль 0 20 км 10/0
[Ac lent]
+18.1 +11.9 67 +18 +21 1006.6 991.1
09 12.07 штиль 0 20 км 10/4 600 м
[Cb cap Ac cast]
+20.4 +10.4 53 +22 +26 комфорт 1006.5 991.1
12 12.07 ЮВ 4 20 км 10/10 300 м
[Cb cap]
+19.9 +11.6 59 +21 +21 комфорт 1006.7 991.3
15 12.07 ЮВ 3 20 км 10/6 600 м
[Cb cap Ac trans Ci fib]
+20.9 +9.4 48 +23 +23 комфорт 1006.6 991.1 +21.5
18 12.07 В 2 20 км 6/3 600 м
[Cb cap Ci fib]
+15.9 +9.4 65 +16 +16 1007.1 991.4
21 12.07 Ю 1 20 км ясно +12.7 +9.7 82 +13 +13 1007.3 991.4
00 13.07 ЮВ 1 20 км ясно +10.3 +9.0 92 +10 +10 1006.8 990.8
03 13.07 штиль 0 20 км 3/0
[Ci fib]
+12.9 +10.5 85 +12 +15 1007.0 991.2 +9.4
06 13.07 Ю 1 20 км 3/0
[Ci fib]
+22.8 +10.1 45 +25 +36 комфорт 1006.7 991.4
09 13.07 Ю 3 20 км 8/8 300 м
[Cb cap]
+26.5 +6.8 29 +26 +29 жарко 1006.1 991.0
12 13.07 З 3 20 км 9/8 300 м
[Cb cap Ac As]
+25.7 +7.1 31 +26 +27 жарко 1006.2 991.0
15 13.07 ЮВ 2 20 км 9/9 300 м
[Cb cap]
+23.2 +9.1 41 +25 +25 комфорт 1007.3 992.0 +27.4
18 13.07 ЮЗ 1 20 км 10/10 300 м
[Cb cap]
+18.5 +9.1 54 +20 +20 1008.3 992.7
21 13.07 В 1 20 км 10/10 300 м
[Cb cap]
+16.6 +10.9 69 +17 +17 1009.1 993.4
00 14.07 З 1 20 км 8/0
[Ac lent]
+15.3 +11.1 76 +16 +16 1008.5 992.8
03 14.07 штиль 0 20 км 8/3 600 м
[Cb cap Ac lent]
+15.2 +12.3 83 +15 +16 1009.1 993.3 +14.6
06 14.07 Ю 1 20 км 10/0
[Cc]
+21.7 +11.4 52 +24 +34 комфорт 1009.1 993.7
09 14.07 ЮЗ 1 20 км 8/8 300 м
[Cb cap]
+23.5 +9.6 41 +24 +28 комфорт 1008.4 993.1
12 14.07 В 1 20 км {ливн. осадки} 10/8 300 м
[Cb cap Ci fib]
+26.7 +9.4 34 +27 +29 жарко 1007.6 992.4
15 14.07 СВ 3
{13}
20 км в посл. час ливневой дождь {гроза} 8/5 600 м
[Cb cap Ac As]
+19.8 +14.6 72 +22 +23 комфорт 1008.8 993.3 +26.7 6
18 14.07 СЗ 2 20 км {гроза, ливн. осадки} 5/5 600 м
[Cb cap]
+17.1 +13.7 80 +17 +17 1009.6 994.0
21 14.07 штиль 0 20 км 3/3 1000 м
[Cb cap]
+13.2 +11.4 89 +13 +13 1009.3 993.5
00 15.07 С 2 20 км ясно +13.0 +11.5 91 +12 +12 1009.3 993.4
03 15.07 С 1 20 км ясно +14.6 +11.4 81 +15 +17 1009.6 993.9 +12.0
06 15.07 СВ 2 20 км ясно +22.0 +13.6 59 +25 +35 комфорт 1009.4 994.0
09 15.07 СВ 1 20 км 6/4 1000 м
[Cu med, cong Ci fib]
+25.4 +10.3 39 +26 +37 жарко 1008.6 993.4
12 15.07 С 1 20 км 8/3 1000 м
[Cu hum Ci fib]
+26.1 +8.3 32 +26 +34 жарко 1008.4 993.3
15 15.07 С 2 20 км 10/4 1000 м
[Cu hum Ac cuf Ci fib]
+24.5 +9.6 39 +25 +26 комфорт 1008.5 993.2 +28.0
18 15.07 С 1 20 км 10/0
[Ci fib]
+19.8 +10.7 56 +22 +22 комфорт 1009.9 994.4
21 15.07 С 2 20 км 10/0
[Ci fib]
+16.0 +9.9 67 +16 +16 1010.4 994.7
00 16.07 СВ 2 20 км 10/0
[Cc]
+14.7 +9.5 71 +14 +14 1010.6 994.8
03 16.07 СВ 2 20 км 10/0
[Ac lent Ci fib]
+15.8 +10.2 69 +16 +16 1010.3 994.6 +14.2
06 16.07 В 1 20 км 10/0
[Ac lent]
+21.6 +13.1 58 +24 +27 комфорт 1010.2 994.8
09 16.07 В 2 20 км 10/6 600 м
[Cb cap Ac cast]
+23.5 +12.9 51 +26 +28 жарко 1010.2 994.9
12 16.07 СЗ 2 20 км в посл. час ливневой дождь 10/10 300 м
[Cb cap]
+20.8 +13.0 61 +24 +24 комфорт 1009.3 993.9
15 16.07 С 3 20 км в посл. час ливневой дождь 10/10 300 м
[Cb cap]
+17.5 +16.0 91 +17 +17 1009.7 994.1 +23.7 3
18 16.07 СВ 3 20 км {ливн. осадки} 10/10 300 м
[Cb cap]
+16.7 +15.4 92 +16 +16 1009.6 994.0
21 16.07 СВ 3 20 км {ливн. осадки} 10/10 300 м
[Cb cap]
+16.6 +15.4 93 +16 +16 1008.3 992.7
00 17.07 В 2 20 км {ливн. осадки} 10/10 300 м
[Cb cap]
+16.7 +15.7 94 +17 +17 1007.1 991.5
03 17.07 В 2 10 км гроза, ливневой дождь 10/10 300 м
[Cb calv]
+16.8 +16.4 97 +17 +17 1005.6 990.1
06 17.07 СВ 2 2000 м гроза, ливневой дождь 10/10 300 м
[Cb cap]
+17.1 +16.7 97 +17 +17 1005.0 989.5
09 17.07 Ю 4 20 км {гроза, ливн. осадки} 10/5 600 м
[Cb cap Ac As Ci fib]
+21.1 +18.8 87 +25 +28 комфорт 1004.0 988.7
12 17.07 ЮЗ 4 20 км в посл. час ливневой дождь {гроза} 10/8 300 м
[Cb cap Ac As]
+21.5 +17.5 78 +26 +26 душно 1004.0 988.7
15 17.07 ЮЗ 2 20 км {ливн. осадки} 10/5 600 м
[Cb cap Ci fib]
+22.2 +17.2 73 +27 +27 душно 1003.8 988.6 +24.5 47
18 17.07 ЮЗ 2 20 км {ливн. осадки} 8/3 600 м
[Cb cap Ac As]
+18.7 +16.9 89 +20 +20 1005.8 990.4
21 17.07 З 1 20 км 3/0
[Ac trans]
+16.6 +15.8 95 +17 +17 1006.6 991.0
00 18.07 ЮЗ 1 20 км ясно +14.3 +13.9 97 +15 +15 1007.0 991.3
03 18.07 З 1 20 км ясно +15.6 +15.2 97 +16 +18 1007.9 992.2 +13.2
06 18.07 З 3 20 км 6/6 600 м
[Cu hum]
+22.5 +15.2 63 +26 +30 жарко 1008.2 992.9
09 18.07 З 4 20 км 8/8 300 м
[Cb cap]
+25.6 +13.3 46 +28 +30 жарко 1008.0 992.8
12 18.07 ЮЗ 3 20 км 8/8 300 м
[Cb cap]
+27.5 +9.7 33 +28 +30 жарко 1008.0 992.9
15 18.07 С 1 20 км 10/0
[Cc]
+27.6 +8.9 31 +28 +29 жарко 1008.1 993.0 +28.0
18 18.07 штиль 0 20 км 10/0
[Ac lent Ci fib]
+22.1 +12.9 56 +25 +25 комфорт 1009.3 993.9

 

Местоположение метеостанции Елань (Волгоградская область, Россия): широта 50.95 долгота 43.73 высота над уровнем моря 133 м.

В архиве по умолчанию представлена погода в Елани за последнюю неделю. Архивные данные за месяц целиком и за предыдущие месяцы, начиная с января 2011 года, Вы можете получить, выбрав интересующий диапазон дат из раскрывающегося списка и нажав кнопку "Ввод!".


*Определитесь, кто Вы:
робот инопланетянин человек

Внимание! Время в таблицах - всемирное. Для получения местного времени необходимо прибавить поправку, которая равна 3 ч.

Смотрите также архив погоды в соседних городах и на ближайших метеорологических станциях:

Погода в Рудне (Волгоградская область, Россия) (60 км)
Погода в Даниловке (Волгоградская область, Россия) (70 км)
Погода в Балашове (Саратовская область, Россия) (78 км)
Погода в Калининске (Саратовская область, Россия) (80 км)
Погода в Новоаннинском (Волгоградская область, Россия) (87 км)
Погода в Михайловке (Волгоградская область, Россия) (102 км)
Погода в Росташах (Саратовская область, Россия) (103 км)
Погода в Сплавнухе (Саратовская область, Россия) (116 км)
Погода в Урюпинске (Волгоградская область, Россия) (123 км)
Погода в Борисоглебске (Воронежская область, Россия) (124 км)

Пояснения к столбцам:

Ветер - указаны скорость ветра в м/с - средняя за 10 мин, порывы в срок и между сроками (в фигурных скобках) и направление, откуда дует ветер: С - северный, СВ - северо-восточный, В - восточный, ЮВ - юго-восточный, Ю - южный, ЮЗ - юго-западный, З - западный, СЗ - северо-западный.
Видимость - горизонтальная дальность видимости в метрах или километрах. При видимости от 1 до 10 км при отсутствии осадков обычно наблюдается дымка, при ухудшении видимости до 1 км и менее - туман. В сухую погоду видимость может ухудшаться дымом, пылью или мглою.
Явления - указаны атмосферные явления, наблюдавшиеся в срок или в последний час перед сроком; фигурными скобками обозначены явления, наблюдавшиеся между сроками (за 1-3 часа до срока); квадратными скобками обозначены град или гололедные отложения с указанием их диаметра в мм.
Облачность - указаны через наклонную черту общая и нижняя облачность в баллах и высота нижней границы облаков в метрах; квадратными скобками обозначены формы облаков: Ci - перистые, Cs - перисто-слоистые, Cc - перисто-кучевые, Ac - высококучевые, As - высокослоистые, Sc - слоисто-кучевые, Ns - слоисто-дождевые, Cu - кучевые, Cb - кучево-дождевые. Подробнее классификацию облаков см. в Атласе облаков (PDF).
T - Температура воздуха - температура, измеренная на высоте 2 м над землей.
Td - Температура точки росы - температура, при понижении до которой содержащийся в воздухе водяной пар достигнет насыщения.
f - Относительная влажность воздуха - влажноcть воздуха, измеренная на высоте 2 м над землей.
Te - Эффективная температура - температура, которую ощущает одетый по сезону человек в тени. Характеристика душности погоды. При расчете учитывается влияние влажности воздуха и скорости ветра на теплоощущения человека.
Tes - Эффективная температура на солнце - температура, которую ощущает человек, с поправкой на солнечный нагрев. Характеристика знойности погоды. Зависит от высоты солнца над горизонтом, облачности и скорости ветра. Ночью, в пасмурную погоду, а также при ветре 12 м/с и более поправка равна нулю.
P - Атмосферное давление - приведенное к уровню моря атмосферное давление.
Po - Атмосферное давление - измеренное на уровне метеостанции атмосферное давление.
Tmin - Минимальная температура - минимум температуры воздуха на высоте 2 м над землей.
Tmax - Максимальная температура - максимум температуры воздуха на высоте 2 м над землей.
R - Количество осадков - Количество выпавших осадков за период времени, мм. При наведении курсора мыши на число - период времени, за который выпало указанное количество осадков.
R24 - Количество осадков - Количество выпавших осадков за 24 часа, мм.
S - Снежный покров - Высота снежного покрова, см. При наведении курсора мыши на число - состояние снежного покрова и степень покрытия местности в баллах.